Location: Prescott
(34.5400°N, 112.4680°W)
Time: 17:27:43
(UTC-07:00)

Amateur Radio Satellites - All Passes

Search period start: 27 August 2015 16:57
Search period end: 28 August 2015 16:57
Location: Prescott, 34.5400°N, 112.4680°W

Satellite Date Start Highest point End Downlink Frequencies (MHz)
Time Altitude Azimuth
Cubesat XI-IV 27 Aug 17:06:42 17:10:46 23° 68° (ENE) 17:14:58 437.490
Cosmos 2499 27 Aug 17:38:00 17:44:28 23° 277° (W) 17:50:17 435.465 / 435.565
RS-15 27 Aug 17:40:26 17:51:09 57° 306° (NW) 18:02:12 29.354- 29.394
AIST 2 27 Aug 17:44:58 17:48:51 34° 305° (NW) 17:52:44 435.215
CUTE-I 27 Aug 17:51:49 17:57:04 65° 75° (ENE) 18:02:21 437.470
SRMSAT 27 Aug 17:52:05 17:56:04 19° 177° (S) 18:00:05 437.500
MOZHAYETS 4 27 Aug 17:52:50 17:56:26 23° 290° (WNW) 17:59:54
CUBESAT XI-V 27 Aug 17:55:51 17:59:50 28° 96° (E) 18:03:52 437.345
O/OREOS (USA 219) 27 Aug 18:20:48 18:21:27 10° 99° (E) 18:22:25 437.305
ISS 27 Aug 18:33:17 18:35:32 17° 231° (SW) 18:37:43 145.825
AIST 1 27 Aug 18:38:00 18:39:40 12° 71° (ENE) 18:41:35
BRITE-PL 27 Aug 18:40:02 18:43:23 24° 70° (ENE) 18:46:58 437.365/2234.400
JUGNU 27 Aug 18:40:50 18:43:41 14° 191° (SSW) 18:46:27 437.505
Cubesat XI-IV 27 Aug 18:45:45 18:50:41 37° 262° (W) 18:55:35 437.490
HO-68 27 Aug 18:47:23 18:51:52 19° 61° (ENE) 18:56:41 435.675
PRISM 27 Aug 18:49:52 18:52:19 16° 93° (E) 18:54:56 437.425
STRAND 1 27 Aug 19:06:45 19:11:32 41° 98° (E) 19:16:21 437.568
GOMX 1 27 Aug 19:31:54 19:36:06 53° 74° (ENE) 19:40:36 467.674
CUBESAT XI-V 27 Aug 19:33:27 19:37:08 23° 289° (WNW) 19:40:44 437.345
CUTE-I 27 Aug 19:35:14 19:37:41 13° 270° (W) 19:39:45 437.470
Cosmos 2491 27 Aug 19:36:00 19:43:26 32° 72° (ENE) 19:51:06 435.465 / 435.565
CUTE 1.7 + AOD 2 27 Aug 19:37:19 19:40:43 24° 72° (ENE) 19:44:13 437.475
SRMSAT 27 Aug 19:40:50 19:44:34 17° 187° (S) 19:48:17 437.500
YUBILEINY 27 Aug 19:44:56 19:48:56 15° 81° (E) 19:53:37 435.215
CANX-2 27 Aug 19:49:57 19:53:55 38° 74° (ENE) 19:57:55 2200.000
CINEMA 3 27 Aug 19:51:25 19:54:50 22° 70° (ENE) 19:58:31 145.822/145.860
O/OREOS (USA 219) 27 Aug 19:55:59 20:00:25 57° 292° (WNW) 20:04:54 437.305
RS-15 27 Aug 20:00:00 20:07:01 17° 335° (NNW) 20:13:47 29.354- 29.394
Oscar 11 27 Aug 20:03:46 20:04:17 10° 67° (ENE) 20:05:04 145.826/435.025
DOVE 4 27 Aug 20:07:59 20:12:23 81° 77° (ENE) 20:17:06 437.250
AIST 1 27 Aug 20:13:31 20:17:37 43° 267° (W) 20:21:43
CUBEBUG 2 27 Aug 20:13:40 20:16:29 17° 68° (ENE) 20:19:32 437.445
BRITE-PL 27 Aug 20:18:30 20:21:54 23° 267° (W) 20:25:20 437.365/2234.400
SEEDS 27 Aug 20:19:35 20:23:47 61° 76° (ENE) 20:28:00 437.485
PRISM 27 Aug 20:24:11 20:27:51 32° 287° (WNW) 20:31:29 437.425
DELFI C3 27 Aug 20:28:25 20:29:49 12° 69° (ENE) 20:31:27 145.870
UWE-3 27 Aug 20:30:03 20:33:13 20° 69° (ENE) 20:36:36 435.000/436.395/437.385
HO-68 27 Aug 20:31:48 20:38:57 75° 256° (WSW) 20:46:09 435.675
ZACube-1 27 Aug 20:34:15 20:36:54 16° 69° (ENE) 20:39:47 437.345
FUNcube-1 27 Aug 20:41:24 20:44:26 19° 69° (ENE) 20:47:40 145.935
STRAND 1 27 Aug 20:46:46 20:50:29 20° 292° (WNW) 20:54:02 437.568
COMPASS 1 27 Aug 20:49:17 20:53:30 75° 259° (W) 20:57:43 437.405
AAUSAT CUBESAT 2 27 Aug 21:03:43 21:07:52 59° 260° (W) 21:12:01 437.432
CUTE 1.7 + AOD 2 27 Aug 21:13:04 21:16:34 23° 265° (W) 21:19:59 437.475
GOMX 1 27 Aug 21:13:44 21:14:47 10° 272° (W) 21:15:32 467.674
DX 1 27 Aug 21:23:06 21:24:38 12° 67° (ENE) 21:26:25 434.975-435.025
CANX-2 27 Aug 21:27:29 21:30:01 15° 268° (W) 21:32:21 2200.000
CINEMA 3 27 Aug 21:27:49 21:31:51 31° 265° (W) 21:36:01 145.822/145.860
Cosmos 2491 27 Aug 21:32:17 21:40:36 49° 270° (W) 21:48:51 435.465 / 435.565
Oscar 11 27 Aug 21:35:42 21:40:00 61° 260° (W) 21:44:19 145.826/435.025
YUBILEINY 27 Aug 21:35:57 21:44:44 89° 276° (W) 21:53:36 435.215
50 SAT 27 Aug 21:39:40 21:41:00 12° 69° (ENE) 21:42:33 437.505
UKube-1 27 Aug 21:41:37 21:44:27 18° 69° (ENE) 21:47:25 .
CUBEBUG 2 27 Aug 21:48:33 21:52:51 40° 263° (W) 21:57:14 437.445
VELOX 1 27 Aug 21:54:48 21:57:34 17° 69° (ENE) 22:00:30 145.980
HUMSAT D 27 Aug 21:55:41 21:59:49 50° 75° (ENE) 22:04:02 437.325/437.525
TIGRISAT 27 Aug 22:00:27 22:02:56 15° 91° (E) 22:05:36 435.000
DELFI C3 27 Aug 22:00:37 22:04:32 44° 262° (W) 22:08:25 145.870
UWE-3 27 Aug 22:05:23 22:09:30 34° 264° (W) 22:13:42 435.000/436.395/437.385
ZACube-1 27 Aug 22:08:42 22:12:56 41° 263° (W) 22:17:14 437.345
ANTELSAT 27 Aug 22:14:41 22:18:16 23° 94° (E) 22:21:52 437.575/2403.000
FUNcube-1 27 Aug 22:16:24 22:20:30 34° 263° (W) 22:24:39 145.935
RS-15 27 Aug 22:21:43 22:26:21 13° 12° (NNE) 22:31:22 29.354- 29.394
Cosmos 2504 27 Aug 22:24:08 22:29:41 22° 83° (E) 22:35:52 435.465 / 435.565
ESTCUBE 1 27 Aug 22:30:16 22:34:13 32° 72° (ENE) 22:38:13 437.505/2401.250
QB50P1 27 Aug 22:33:48 22:35:05 11° 90° (E) 22:36:38 145.935-145.965
AUBIESAT-1 27 Aug 22:42:46 22:46:17 30° 100° (E) 22:49:34 437.475
M-CUBED/EXP-1 PRIME 27 Aug 22:43:26 22:47:13 38° 102° (ESE) 22:50:42 437.505
DX 1 27 Aug 22:56:17 23:00:29 51° 260° (W) 23:04:43 434.975-435.025
AISAT 27 Aug 22:59:47 23:04:11 79° 258° (WSW) 23:08:36 437.250
UNISAT 6 27 Aug 23:04:54 23:09:31 89° 102° (ESE) 23:14:00 437.425
50 SAT 27 Aug 23:11:24 23:15:10 43° 261° (W) 23:18:58 437.505
CUBEBUG 1 27 Aug 23:14:33 23:18:51 86° 77° (ENE) 23:23:11 437.445
TISAT 1 27 Aug 23:16:24 23:18:14 13° 68° (ENE) 23:20:17 437.305
UKube-1 27 Aug 23:16:27 23:20:21 33° 262° (W) 23:24:14 .
SPROUT 27 Aug 23:28:08 23:31:56 32° 73° (ENE) 23:35:49 437.525
VELOX 1 27 Aug 23:29:49 23:33:52 35° 262° (W) 23:37:54 145.980
POLYITAN 1 27 Aug 23:30:26 23:34:42 60° 101° (E) 23:38:57 437.675
HUMSAT D 27 Aug 23:34:29 23:35:54 11° 270° (W) 23:37:03 437.325/437.525
POPSAT HIP 1 27 Aug 23:34:51 23:39:08 66° 101° (E) 23:43:24 437.405
TIGRISAT 27 Aug 23:35:35 23:39:57 42° 287° (WNW) 23:44:09 435.000
YUBILEINY 27 Aug 23:37:56 23:43:02 15° 297° (WNW) 23:47:32 435.215
DUCHIFAT 1 27 Aug 23:39:25 23:43:43 73° 101° (ESE) 23:47:58 145.980
QB50P2 27 Aug 23:50:37 23:54:56 75° 284° (WNW) 23:59:12 145.880/145.840
ANTELSAT 27 Aug 23:51:06 23:55:02 28° 289° (WNW) 23:58:48 437.575/2403.000
NANOSAT C BR1 27 Aug 23:55:16 23:59:33 70° 283° (WNW) 00:03:48 145.865
BUGSAT 1 28 Aug 00:06:51 00:11:07 86° 281° (W) 00:15:23 437.445
QB50P1 28 Aug 00:07:07 00:11:16 48° 285° (WNW) 00:15:24 145.935-145.965
ESTCUBE 1 28 Aug 00:07:52 00:11:09 19° 266° (W) 00:14:18 437.505/2401.250
Cosmos 2504 28 Aug 00:13:23 00:21:11 64° 280° (W) 00:29:34 435.465 / 435.565
AUBIESAT-1 28 Aug 00:18:13 00:20:43 16° 297° (WNW) 00:23:01 437.475
M-CUBED/EXP-1 PRIME 28 Aug 00:19:31 00:21:37 14° 298° (WNW) 00:23:28 437.505
BEESAT 3 28 Aug 00:20:37 00:23:50 23° 52° (NE) 00:27:04 437.485
BEESAT 2 28 Aug 00:26:10 00:29:09 20° 51° (NE) 00:32:13 435.950
RS-15 28 Aug 00:33:36 00:44:00 36° 44° (NE) 00:55:00 29.354- 29.394
ITUPSAT 1 28 Aug 00:36:23 00:39:33 19° 68° (ENE) 00:42:54 437.325
DANDE 28 Aug 00:42:10 00:45:02 63° 96° (E) 00:48:41 436.750
CUSAT 1 28 Aug 00:46:10 00:49:21 52° 283° (WNW) 00:53:31 437.405
SO-50 28 Aug 00:49:26 00:52:53 21° 111° (ESE) 00:56:35 436.795
TISAT 1 28 Aug 00:49:38 00:53:38 43° 261° (W) 00:57:40 437.305
SPROUT 28 Aug 01:05:14 01:08:08 17° 267° (W) 01:10:51 437.525
POLYITAN 1 28 Aug 01:09:25 01:10:08 10° 293° (WNW) 01:10:34 437.675
BEESAT 28 Aug 01:11:00 01:15:30 44° 73° (ENE) 01:20:03 436.000
SWISSCUBE 28 Aug 01:35:59 01:40:45 88° 250° (WSW) 01:45:33 437.505
Oscar 19 28 Aug 01:50:57 01:56:10 69° 101° (ESE) 02:01:20 437.125/150
KKS-1 28 Aug 01:56:54 02:00:03 20° 69° (ENE) 02:03:20 437.445
Gurwin Techsat 1B 28 Aug 01:57:42 02:01:45 23° 94° (E) 02:05:56 435.225
BEESAT 3 28 Aug 01:58:24 02:01:42 24° 248° (WSW) 02:04:55 437.485
BEESAT 2 28 Aug 02:03:42 02:07:14 29° 247° (WSW) 02:10:41 435.950
AIST 2 28 Aug 02:09:31 02:13:35 51° 58° (ENE) 02:17:35 435.215
ITUPSAT 1 28 Aug 02:12:41 02:17:11 39° 262° (W) 02:21:39 437.325
PCSat 28 Aug 02:17:30 02:22:51 70° 114° (ESE) 02:28:16 145.827
GONETS M04 28 Aug 02:23:26 02:31:16 42° 89° (E) 02:39:18
SO-50 28 Aug 02:28:45 02:33:12 38° 306° (NW) 02:37:46 436.795
ITAMSAT 1 28 Aug 02:40:18 02:45:18 49° 100° (E) 02:50:19 435.822/435.867
RS-15 28 Aug 02:45:38 02:57:29 69° 246° (WSW) 03:09:35 29.354- 29.394
BEESAT 28 Aug 02:50:38 02:53:36 16° 268° (W) 02:56:21 436.000
JAS-2 28 Aug 02:51:33 02:57:57 37° 94° (E) 03:03:44 435.910
MOZHAYETS 4 28 Aug 03:14:37 03:17:46 19° 70° (ENE) 03:21:04
STARS 28 Aug 03:24:13 03:28:35 69° 259° (WSW) 03:32:59 437.465
KKS-1 28 Aug 03:32:31 03:36:29 31° 263° (W) 03:40:26 437.445
Oscar 19 28 Aug 03:32:39 03:34:59 13° 295° (WNW) 03:37:01 437.125/150
Gurwin Techsat 1B 28 Aug 03:36:58 03:41:52 37° 289° (WNW) 03:46:40 435.225
AIST 2 28 Aug 03:50:30 03:51:43 11° 251° (WSW) 03:52:42 435.215
PCSat 28 Aug 04:03:34 04:06:53 16° 312° (NW) 04:09:59 145.827
Cosmos 2499 28 Aug 04:14:13 04:22:08 57° 91° (E) 04:30:40 435.465 / 435.565
GONETS M04 28 Aug 04:20:17 04:28:12 37° 286° (WNW) 04:35:59
ITAMSAT 1 28 Aug 04:21:00 04:24:27 18° 293° (WNW) 04:27:42 435.822/435.867
AO-7 28 Aug 04:23:23 04:31:38 68° 104° (ESE) 04:39:53 29.400- 29.500
VERMONT LUNAR 28 Aug 04:31:44 04:34:36 46° 152° (SSE) 04:37:30 437.305
O/OREOS (USA 219) 28 Aug 04:32:00 04:34:08 13° 56° (ENE) 04:36:29 437.305
JAS-2 28 Aug 04:36:37 04:42:54 33° 293° (WNW) 04:48:26 435.910
HORYU 2 28 Aug 04:37:28 04:41:57 78° 284° (WNW) 04:46:22 437.375
MOZHAYETS 4 28 Aug 04:50:30 04:54:46 35° 263° (W) 04:58:59
CUBESAT XI-V 28 Aug 04:56:35 04:59:45 19° 70° (ENE) 05:03:04 437.345
RS-15 28 Aug 05:03:54 05:08:30 12° 260° (W) 05:11:41 29.354- 29.394
Cubesat XI-IV 28 Aug 05:29:13 05:30:41 11° 89° (E) 05:32:32 437.490
PHONESAT 2.4 28 Aug 05:33:18 05:34:54 13° 143° (SE) 05:36:36 2401.200-2431.200
VERMONT LUNAR 28 Aug 06:08:21 06:11:08 34° 346° (NNW) 06:13:54 437.305
Cosmos 2499 28 Aug 06:08:54 06:15:53 27° 291° (WNW) 06:22:54 435.465 / 435.565
O/OREOS (USA 219) 28 Aug 06:09:29 06:13:59 53° 254° (WSW) 06:18:26 437.305
CUTE-I 28 Aug 06:12:48 06:17:34 34° 97° (E) 06:22:23 437.470
AO-7 28 Aug 06:17:27 06:23:51 25° 300° (WNW) 06:29:56 29.400- 29.500
STRAND 1 28 Aug 06:19:12 06:23:56 41° 72° (ENE) 06:28:44 437.568
CUBESAT XI-V 28 Aug 06:32:46 06:36:58 34° 263° (W) 06:41:09 437.345
BRITE-PL 28 Aug 06:48:16 06:50:57 14° 90° (E) 06:54:01 437.365/2234.400
Cubesat XI-IV 28 Aug 07:06:06 07:11:24 71° 285° (WNW) 07:16:41 437.490
PHONESAT 2.4 28 Aug 07:09:03 07:12:26 80° 157° (SSE) 07:15:51 2401.200-2431.200
PRISM 28 Aug 07:09:59 07:14:06 74° 258° (WSW) 07:18:12 437.425
GOMX 1 28 Aug 07:37:00 07:41:25 26° 94° (E) 07:46:00 467.674
VERMONT LUNAR 28 Aug 07:45:30 07:48:02 24° 3° (N) 07:50:35 437.305
YUBILEINY 28 Aug 07:51:03 07:59:04 39° 74° (ENE) 08:07:10 435.215
CUTE-I 28 Aug 07:53:09 07:57:30 25° 291° (WNW) 08:01:44 437.470
STRAND 1 28 Aug 07:59:42 08:03:21 19° 267° (W) 08:06:50 437.568
HO-68 28 Aug 08:04:17 08:09:58 26° 94° (E) 08:15:51 435.675
SEEDS 28 Aug 08:09:13 08:11:02 13° 91° (E) 08:13:03 437.485
DOVE 4 28 Aug 08:10:26 08:15:10 33° 96° (E) 08:19:55 437.250
BRITE-PL 28 Aug 08:24:26 08:29:51 66° 284° (WNW) 08:35:29 437.365/2234.400
Cosmos 2491 28 Aug 08:32:36 08:40:26 41° 89° (E) 08:48:26 435.465 / 435.565
COMPASS 1 28 Aug 08:36:50 08:40:01 22° 94° (E) 08:43:17 437.405
AIST 1 28 Aug 08:38:56 08:43:09 62° 278° (W) 08:47:21
PHONESAT 2.4 28 Aug 08:47:25 08:50:32 33° 351° (N) 08:53:40 2401.200-2431.200
AAUSAT CUBESAT 2 28 Aug 08:50:28 08:53:56 26° 95° (E) 08:57:27 437.432
CUTE 1.7 + AOD 2 28 Aug 09:00:45 09:04:59 76° 101° (E) 09:09:11 437.475
ANTELSAT 28 Aug 09:11:08 09:13:38 15° 68° (ENE) 09:16:22 437.575/2403.000
CANX-2 28 Aug 09:14:09 09:18:21 64° 284° (WNW) 09:22:29 2200.000
GOMX 1 28 Aug 09:14:36 09:19:33 36° 288° (WNW) 09:24:29 467.674
VERMONT LUNAR 28 Aug 09:21:54 09:24:50 54° 19° (NNE) 09:27:47 437.305
CINEMA 3 28 Aug 09:25:26 09:30:29 84° 102° (ESE) 09:35:24 145.822/145.860
AUBIESAT-1 28 Aug 09:25:50 09:29:51 29° 67° (ENE) 09:33:56 437.475
SO-50 28 Aug 09:26:17 09:26:42 10° 41° (NE) 09:27:21 436.795
Oscar 11 28 Aug 09:26:51 09:30:38 30° 96° (E) 09:34:27 145.826/435.025
M-CUBED/EXP-1 PRIME 28 Aug 09:26:51 09:31:07 35° 68° (ENE) 09:35:29 437.505
ISS 28 Aug 09:32:26 09:35:39 74° 136° (SE) 09:38:54 145.825
CUBEBUG 2 28 Aug 09:42:59 09:47:38 56° 100° (E) 09:52:07 437.445
SEEDS 28 Aug 09:43:07 09:47:03 40° 286° (WNW) 09:50:57 437.485
DELFI C3 28 Aug 09:43:10 09:46:38 28° 96° (E) 09:50:07 145.870
CUSAT 1 28 Aug 09:43:17 09:46:50 14° 65° (ENE) 09:51:08 437.405
HUMSAT D 28 Aug 09:46:08 09:46:44 10° 89° (E) 09:47:38 437.325/437.525
YUBILEINY 28 Aug 09:47:49 09:55:54 40° 272° (W) 10:03:48 435.215
DOVE 4 28 Aug 09:48:18 09:52:45 27° 290° (WNW) 09:57:06 437.250
HO-68 28 Aug 09:51:05 09:58:01 52° 290° (WNW) 10:04:53 435.675
UWE-3 28 Aug 09:58:26 10:03:01 64° 100° (E) 10:07:29 435.000/436.395/437.385
UNISAT 6 28 Aug 09:59:53 10:04:22 51° 74° (ENE) 10:08:57 437.425
ZACube-1 28 Aug 10:00:44 10:05:07 49° 99° (E) 10:09:24 437.345
Cosmos 2504 28 Aug 10:04:39 10:12:15 36° 73° (ENE) 10:19:38 435.465 / 435.565
FUNcube-1 28 Aug 10:07:57 10:12:24 59° 100° (E) 10:16:44 145.935
COMPASS 1 28 Aug 10:12:15 10:15:38 24° 288° (WNW) 10:18:55 437.405
POLYITAN 1 28 Aug 10:20:12 10:23:49 28° 72° (ENE) 10:27:31 437.675
POPSAT HIP 1 28 Aug 10:24:20 10:28:02 30° 72° (ENE) 10:31:48 437.405
PHONESAT 2.4 28 Aug 10:25:50 10:28:55 31° 8° (N) 10:32:01 2401.200-2431.200
AAUSAT CUBESAT 2 28 Aug 10:26:19 10:29:22 20° 289° (WNW) 10:32:18 437.432
DUCHIFAT 1 28 Aug 10:28:23 10:32:07 32° 73° (ENE) 10:35:57 145.980
Cosmos 2491 28 Aug 10:29:22 10:37:21 38° 286° (WNW) 10:45:11 435.465 / 435.565
TIGRISAT 28 Aug 10:29:57 10:34:35 76° 260° (W) 10:39:18 435.000
QB50P2 28 Aug 10:39:49 10:43:54 49° 75° (ENE) 10:48:03 145.880/145.840
NANOSAT C BR1 28 Aug 10:44:01 10:48:06 53° 75° (ENE) 10:52:16 145.865
ANTELSAT 28 Aug 10:45:33 10:50:02 48° 261° (W) 10:54:35 437.575/2403.000
DX 1 28 Aug 10:48:07 10:52:06 34° 98° (E) 10:56:06 434.975-435.025
50 SAT 28 Aug 10:50:15 10:53:26 25° 96° (E) 10:56:38 437.505
BUGSAT 1 28 Aug 10:53:31 10:57:14 38° 74° (ENE) 11:01:04 437.445
AISAT 28 Aug 10:54:20 10:58:03 26° 96° (E) 11:01:50 437.250
QB50P1 28 Aug 10:55:50 11:00:03 77° 77° (ENE) 11:04:19 145.935-145.965
VERMONT LUNAR 28 Aug 10:58:42 11:01:10 23° 213° (SSW) 11:03:37 437.305
AUBIESAT-1 28 Aug 11:00:26 11:04:27 27° 260° (W) 11:08:24 437.475
M-CUBED/EXP-1 PRIME 28 Aug 11:02:09 11:05:55 22° 262° (W) 11:09:35 437.505
SO-50 28 Aug 11:03:15 11:08:11 76° 60° (ENE) 11:12:58 436.795
Oscar 11 28 Aug 11:03:31 11:06:37 19° 290° (WNW) 11:09:35 145.826/435.025
UKube-1 28 Aug 11:06:50 11:11:04 51° 100° (E) 11:15:17 .
CUBEBUG 1 28 Aug 11:07:34 11:10:50 21° 94° (E) 11:14:13 437.445
PCSat 28 Aug 11:09:25 11:13:56 27° 54° (NE) 11:18:32 145.827
ISS 28 Aug 11:10:45 11:12:25 13° 333° (NNW) 11:14:01 145.825
HUMSAT D 28 Aug 11:18:43 11:22:51 50° 285° (WNW) 11:26:54 437.325/437.525
DELFI C3 28 Aug 11:18:50 11:21:30 17° 290° (WNW) 11:24:01 145.870
CUBEBUG 2 28 Aug 11:21:38 11:23:49 13° 293° (WNW) 11:25:44 437.445
DANDE 28 Aug 11:21:40 11:28:56 56° 79° (ENE) 11:37:15 436.750
CUSAT 1 28 Aug 11:22:43 11:30:26 79° 81° (E) 11:38:43 437.405
VELOX 1 28 Aug 11:23:14 11:27:36 54° 100° (E) 11:31:59 145.980
UWE-3 28 Aug 11:37:45 11:39:00 11° 294° (WNW) 11:39:59 435.000/436.395/437.385
ZACube-1 28 Aug 11:38:49 11:41:03 13° 293° (WNW) 11:43:02 437.345
UNISAT 6 28 Aug 11:39:14 11:41:30 13° 270° (W) 11:43:30 437.425
FUNcube-1 28 Aug 11:46:45 11:48:13 11° 293° (WNW) 11:49:26 145.935
POLYITAN 1 28 Aug 11:56:35 11:59:45 20° 266° (W) 12:02:48 437.675
Cosmos 2504 28 Aug 11:56:42 12:04:33 42° 272° (W) 12:11:52 435.465 / 435.565
POPSAT HIP 1 28 Aug 12:01:00 12:03:58 18° 267° (W) 12:06:48 437.405
ESTCUBE 1 28 Aug 12:02:27 12:06:56 71° 284° (WNW) 12:11:24 437.505/2401.250
PHONESAT 2.4 28 Aug 12:03:38 12:07:03 89° 12° (NNE) 12:10:29 2401.200-2431.200
DUCHIFAT 1 28 Aug 12:05:16 12:08:02 16° 268° (W) 12:10:40 145.980
QB50P2 28 Aug 12:18:54 12:20:09 11° 270° (W) 12:21:06 145.880/145.840
50 SAT 28 Aug 12:25:04 12:27:48 18° 289° (WNW) 12:30:24 437.505
DX 1 28 Aug 12:25:06 12:28:07 18° 291° (WNW) 12:30:59 434.975-435.025
AISAT 28 Aug 12:30:53 12:34:31 24° 290° (WNW) 12:38:05 437.250
BUGSAT 1 28 Aug 12:31:01 12:32:57 13° 269° (W) 12:34:39 437.445
TISAT 1 28 Aug 12:37:25 12:41:21 35° 98° (E) 12:45:17 437.305
GONETS M04 28 Aug 12:39:26 12:44:14 16° 64° (ENE) 12:49:37
CUBEBUG 1 28 Aug 12:43:22 12:47:12 29° 288° (WNW) 12:50:58 437.445
UKube-1 28 Aug 12:44:58 12:46:47 12° 293° (WNW) 12:48:23 .
PCSat 28 Aug 12:52:29 12:57:26 36° 250° (WSW) 13:02:18 145.827
SPROUT 28 Aug 12:53:31 12:57:52 76° 283° (WNW) 13:02:10 437.525
JAS-2 28 Aug 13:01:22 13:04:52 14° 59° (ENE) 13:08:56 435.910
VELOX 1 28 Aug 13:01:52 13:03:44 12° 293° (WNW) 13:05:22 145.980
Oscar 19 28 Aug 13:04:11 13:09:18 70° 75° (ENE) 13:14:28 437.125/150
DANDE 28 Aug 13:05:30 13:11:53 29° 269° (W) 13:18:37 436.750
CUSAT 1 28 Aug 13:07:04 13:12:30 20° 272° (W) 13:17:43 437.405
Gurwin Techsat 1B 28 Aug 13:15:26 13:19:42 26° 69° (ENE) 13:24:07 435.225
BEESAT 28 Aug 13:16:09 13:18:42 15° 92° (E) 13:21:29 436.000
AO-7 28 Aug 13:32:00 13:34:49 13° 53° (NE) 13:38:15 29.400- 29.500
SWISSCUBE 28 Aug 13:40:13 13:44:23 31° 97° (E) 13:48:36 437.505
PHONESAT 2.4 28 Aug 13:42:31 13:44:39 15° 217° (SW) 13:46:43 2401.200-2431.200
ITAMSAT 1 28 Aug 13:54:46 13:59:46 52° 74° (ENE) 14:04:48 435.822/435.867
Cosmos 2499 28 Aug 14:12:12 14:16:56 16° 63° (ENE) 14:22:04 435.465 / 435.565
TISAT 1 28 Aug 14:14:07 14:16:50 16° 291° (WNW) 14:19:24 437.305
ITUPSAT 1 28 Aug 14:16:23 14:21:08 70° 101° (E) 14:25:52 437.325
GONETS M04 28 Aug 14:33:35 14:42:26 88° 264° (W) 14:51:17
JAS-2 28 Aug 14:41:21 14:48:46 78° 75° (ENE) 14:56:41 435.910
Oscar 19 28 Aug 14:47:42 14:49:15 11° 271° (W) 14:50:24 437.125/150
JUGNU 28 Aug 14:48:22 14:52:00 17° 173° (S) 14:55:40 437.505
BEESAT 28 Aug 14:52:16 14:56:50 46° 287° (WNW) 15:01:20 436.000
Gurwin Techsat 1B 28 Aug 14:54:47 14:59:34 33° 263° (W) 15:04:18 435.225
RS-15 28 Aug 14:55:36 15:03:30 25° 105° (ESE) 15:12:06 29.354- 29.394
STARS 28 Aug 15:17:46 15:21:34 28° 96° (E) 15:25:25 437.465
AO-7 28 Aug 15:18:06 15:26:19 68° 70° (ENE) 15:34:37 29.400- 29.500
SWISSCUBE 28 Aug 15:18:21 15:22:05 23° 290° (WNW) 15:25:43 437.505
KKS-1 28 Aug 15:26:26 15:30:54 64° 100° (E) 15:35:21 437.445
HORYU 2 28 Aug 15:31:53 15:36:19 61° 75° (ENE) 15:40:46 437.375
ITAMSAT 1 28 Aug 15:36:33 15:39:38 15° 269° (W) 15:42:29 435.822/435.867
BEESAT 3 28 Aug 15:46:28 15:50:28 60° 300° (WNW) 15:54:30 437.485
SRMSAT 28 Aug 15:51:42 15:54:41 14° 169° (S) 15:57:45 437.500
BEESAT 2 28 Aug 15:52:53 15:56:57 70° 300° (WNW) 16:01:03 435.950
ITUPSAT 1 28 Aug 15:57:19 15:58:31 11° 295° (WNW) 15:59:24 437.325
Cosmos 2499 28 Aug 16:02:48 16:11:33 88° 267° (W) 16:19:40 435.465 / 435.565
ISS 28 Aug 16:03:15 16:05:38 19° 32° (NNE) 16:08:03 145.825
AIST 2 28 Aug 16:04:22 16:07:51 26° 112° (ESE) 16:11:26 435.215
JAS-2 28 Aug 16:29:39 16:34:41 18° 273° (W) 16:39:27 435.910
GONETS M04 28 Aug 16:33:52 16:38:15 14° 279° (W) 16:41:55
JUGNU 28 Aug 16:36:26 16:40:20 18° 183° (S) 16:44:13 437.505
Cubesat XI-IV 28 Aug 16:47:26 16:50:15 15° 66° (ENE) 16:53:18 437.490
